ORSTED (25635 NORAD) Tracking and Keplerian Element Data

This shows tracking and keplerian element data for the satellite.

Feedback or suggestion? Click here.




ElementValue
Catalog25635
NameORSTED
Epoch Orbit5029
Epoch Day20.91633058
Epoch Year2019
RAAN159.8295
Inclination96.465
Eccentricity0.0138664
Argument of Perigee187.9704
Mean Anonmoly171.9292
Mean Motion14.48125859
Decay Rate7.6E-07
L11 25635U 99008B 19020.91633058 .00000076 00000-0 25639-4 0 9996
L22 25635 96.4650 159.8295 0138664 187.9704 171.9292 14.48125859 50290

Live tracking and technical data element details for ORSTED (NORAD 25635). ORSTED can be tracked NOW for your location showing map with azimuth and elevation plus other details from your city location.

Track the satellite on the map from your city or location and see movement details for azimuth, elevation, latitude, longitude, range, height, and movement on the map or in text.







IsCatalogInMostPopularTable: catalog: 25635, numindb: 57
Update: records affected: 1



GetName: 25635 ORSTED

Hit Count: updated at: Mon, 21 Jan 2019 18:14:08 GMT